This demonstration page uses our WeatherBlox Daily Observations layout. Learn more.

Left ArrowRight Arrow

Hourly Observations for August 22, 2022

Temp ( °F °C ) Dew Point ( °F °C ) Humidity (%) Winds ( mph kmh ) Pressure ( in mb ) Visibility ( mi km ) Precip ( " mm )
12:58 am 00:58 Clear 70 21 64 18 83 83 Calm 30.08 1019 10 16 0.00 0.00
1:56 am 01:56 undefined 68 19.9 62 16.9 83 83 Calm 30.11 1020 9 14 0.00 0.00
2:56 am 02:56 Clear 66 18.9 62 16.9 88 88 Calm 30.11 1020 10 16 0.00 0.00
3:56 am 03:56 Clear 65 18.3 62 16.6 90 90 Calm 30.12 1020 8 13 0.00 0.00
4:56 am 04:56 Clear with Mist and Fog 64 18 62 16.7 92 92 Calm 30.11 1020 6 10 0.00 0.00
5:56 am 05:56 Clear 64 18 62 16.7 92 92 Calm 30.11 1020 7 11 0.00 0.00
6:56 am 06:56 Sunny with Mist and Fog 64 17.6 62 16.8 95 95 Calm 30.12 1020 4 6 0.00 0.00
7:56 am 07:56 Sunny 66 18.9 63 17.2 90 90 Calm 30.14 1021 10 16 0.00 0.00
8:56 am 08:56 Mostly Sunny 69 20.8 64 17.6 82 82 Calm 30.13 1020 10 16 0.00 0.00
9:56 am 09:56 Sunny 74 23.2 65 18.3 74 74 Calm 30.13 1020 10 16 0.00 0.00
10:56 am 10:56 Sunny 77 24.8 65 18.2 67 67 ESE 5 7 30.13 1020 9 14 0.00 0.00
11:56 am 11:56 Mostly Sunny 80 26.6 63 17.4 57 57 Calm 30.13 1020 9 14 0.00 0.00
12:56 pm 12:56 Partly Cloudy 82 28 61 15.9 48 48 Calm 30.06 1018 10 16 0.00 0.00
1:56 pm 13:56 Mostly Sunny 83 28.4 62 16.6 49 49 SE 3 6 30.10 1019 9 14 0.00 0.00
2:56 pm 14:56 Mostly Sunny 83 28.6 60 15.5 45 45 E 5 7 30.08 1019 10 16 0.00 0.00
3:56 pm 15:56 Mostly Sunny 84 28.8 60 15.3 44 44 ENE 6 9 30.07 1018 9 14 0.00 0.00
4:56 pm 16:56 Partly Cloudy 85 29.3 59 15 42 42 Calm 30.06 1018 10 16 0.00 0.00
5:56 pm 17:56 Mostly Sunny 83 28.6 60 15.8 46 46 E 6 9 30.05 1018 10 16 0.00 0.00
6:56 pm 18:56 Sunny 82 27.7 60 15.7 48 48 ESE 5 7 30.04 1017 10 16 0.00 0.00
7:56 pm 19:56 Mostly Sunny 78 25.8 61 16.3 56 56 ESE 3 6 30.03 1017 10 16 0.00 0.00
8:56 pm 20:56 Clear 75 23.8 61 16.1 62 62 Calm 30.04 1017 10 16 0.00 0.00
9:56 pm 21:56 Clear 73 22.6 62 16.4 68 68 E 3 6 30.05 1018 10 16 0.00 0.00
10:56 pm 22:56 Clear 71 21.9 63 17 74 74 Calm 30.06 1018 10 16 0.00 0.00
11:56 pm 23:56 Clear 69 20.6 62 16.4 77 77 ESE 3 6 30.05 1018 10 16 0.00 0.00

Powered by AerisWeather